ONEWEB-0708, 61613

Orbit data source: Space-Track

ONEWEB-0708, 61613 is a payload satellite owned by Eut. One Web (UK) in LEO that was launched on Sun, 20 Oct 2024 UTC via an FALCON 9 launch vehicle from the Air Force Western Test Range (AFWTR). Payload-class satellites include a variety of spacecraft equipped with specific instruments for various scientific and technological missions. These include communications satellites like Starlink; space stations such as the ISS; scientific satellites like the Hubble; Earth observation satellites from companies like Planet Labs, Umbra, and HawkEye 360; GPS; miniature CubeSats for education and research; and military/defense satellites.

Loading next visibility...
Identifier
61613, 2024-188V
Orbit
LEO
Country
Flag of UKUK
Related business
Manufacturer
One Web
Mission
Operational Commercial Communications
Bus & Motor
ARROW, Unknown motor
Mass
148 kg wet, ~140 kg dry
Launch date (UTC)
2024-10-20 (1 year ago)
Launch vehicle
FALCON 9
Launch site
Air Force Western Test Range (AFWTR)
Object type
Payload
Rocket body
Debris
Shape & HBR
Trap Box + 2 Pan, 6.7 m
Radar Cross Section
3.464 m², Large (>1 m²)

Expand to show TLE details & history
Last TLE update: 16 hours ago

TLE from 16 hours ago
0 ONEWEB-0708
1 61613U 24188V   26036.59677508  .00000737  00000-0  20752-2 0  9999
2 61613  87.8751  62.5024 0002432  89.2155 270.9251 13.10371903 66067
Epoch: 2026-02-05T14:19Z
TLE epoch observation values (Epoch: 2026-02-05T14:19:21.366Z)
Latitude
-0.00004°
Longitude
71.91665°
Altitude
1,224.579 km
Speed
7.242 km/s
True Right ascension
04h 10m 00s
True Declination
0° 00' 00"
Sunlit
Object was in daylight at epoch
Visualization orbit readout
Latitude
Unknown
Longitude
Unknown
Altitude
Unknown
Speed
Unknown
Apparent Right ascension
Unknown
Apparent Declination
Unknown
Sunlit
N/A
Visualization observer readout
Local Sidereal Time
07:57:23
Azimuth
Unknown
Elevation
Unknown
Doppler factor
Unknown
Orbital elements
Apogee altitude
1,220.688 km
Perigee altitude
1,216.993 km
Semi-major axis
7,596.978 km
Eccentricity
0.00024
Inclination
87.8751°
RAAN
62.5024°
Arg. of periapsis
89.2155°
True anomaly
270.89723°
Mean anomaly
270.9251°
Eccentric anomaly
270.91117°
Mean motion
3.2778 °/min
Orbital period
109.83 mins
BSTAR
0.0020752
Loading maneuver chart data...
Computing Atmospheric mass density...
Loading historical data...
Loading historical data...
Loading historical data...
Loading historical data...
Loading historical data...
Loading historical data...
Loading historical data...

Documentation

Showing up to 5 results
|